User: anonymous   Login
Location: Barnston
(51.8500°N, 0.4000°E)
Time: 20:49:13
(UTC+00:00)
Language:

ADEOS II - Orbit

View from above orbital plane
View from above orbital plane
View from above satellite
View from above satellite

Ground track
Ground track

The orbit data is extracted from the following two-line orbital elements,

1 27597U 02056A   24062.41661143  .00000469  00000-0  20615-3 0  9999
2 27597  98.6806   9.6172 0001455  44.5187 315.6111 14.28220167105016
Epoch (UTC): 02 March 2024 09:59:55
Eccentricity: 0.0001455
inclination: 98.6806°
perigee height: 796 km
apogee height: 799 km
right ascension of ascending node: 9.6172°
argument of perigee: 44.5187°
revolutions per day: 14.28220167
mean anomaly at epoch: 315.6111°
orbit number at epoch: 10501

The dashed part of the orbit path shows where the satellite is in the earth's shadow,  

DLR